SES-9                   
1 41380U 16013A   19258.86482758 -.00000354  00000-0  00000-0 0  9993
2 41380   0.0425 268.7327 0001753 226.5826 278.8605  1.00271891 12728
FALCON 9 R/B            
1 41381U 16013B   19258.21571539  .00000128  00000-0 -18050-3 0  9995
2 41381  27.7777 308.2343 7476120 114.2901 336.3786  1.98755774 25561